www.pogodaiklimat.ru

Погода и климат >> Архив погоды >> Таиланд >> Тха Пхра Агромет


ПОГОДА в Тха Пхра Агромете

  • Прогноз погоды в Тха Пхра Агромете
  • Монитор погоды в Тха Пхра Агромете

АРХИВ ПОГОДЫ в Тха Пхра Агромете

Время (UTC), дата Ветер
(напр.,м/с)
 
Видим.   Явления Облачность Т
(С)
Тd
(С)
f
(%)
Тe
(С)
Тes
(С)
Комфортность P
(гПа)
Po
(гПа)
Тmin
(С)
Tmax
(С)
R
(мм)
R24
(мм)
S
(см)
03 14.09 СВ 4 10 км 8/4 600 м
[Cu med, cong Cs]
+30.4 +25.3 74 +44 +49 опасность
перегрева
1008.1 989.4
06 14.09 СВ 2 10 км 8/3 600 м
[Cu med, cong Cs]
+32.5 +24.5 63 +45 +57 опасность
перегрева
1006.4 987.8
09 14.09 С 4 10 км 9/3 600 м
[Cu med, cong Cs]
+32.9 +26.7 70 +50 +53 опасность
перегрева
1003.7 985.2
12 14.09 штиль 0 10 км 8/0
[Cs]
+29.5 +26.1 82 +45 +45 опасность
перегрева
1004.9 986.2 +34.0
15 14.09 штиль 0 8000 м дымка 8/0
[Cs]
+27.0 +25.6 92 +40 +40 очень
душно
1007.3 988.4
18 14.09 штиль 0 8000 м дымка 3/0
[Ac trans Cs]
+26.0 +25.1 95 +37 +37 очень
душно
1006.8 987.9
21 14.09 штиль 0 8000 м дымка 8/5 600 м
[Sc Ac trans Cs]
+25.9 +25.3 96 +37 +37 очень
душно
1006.5 987.5
00 15.09 штиль 0 10 км 3/0
[Ac lent Cs]
+25.5 +24.9 96 +36 +37 очень
душно
1007.7 988.7 +24.6
03 15.09 СВ 6 12 км 3/3 600 м
[Cu hum]
+31.1 +24.4 68 +44 +48 опасность
перегрева
1008.1 989.5
06 15.09 штиль 0 12 км 3/3 600 м
[Cu hum]
+32.9 +24.5 61 +45 +64 опасность
перегрева
1005.9 987.4
09 15.09 штиль 0 12 км 3/3 600 м
[Cu hum Ac lent]
+33.9 +25.6 62 +49 +54 опасность
перегрева
1003.7 985.3
12 15.09 штиль 0 10 км 3/1 600 м
[Cu hum Cs]
+29.0 +24.9 79 +42 +42 опасность
перегрева
1004.8 986.1 +33.9
15 15.09 штиль 0 8000 м дымка ясно +27.3 +25.4 89 +40 +40 очень
душно
1007.0 988.1
18 15.09 штиль 0 8000 м дымка ясно +25.8 +24.6 93 +36 +36 очень
душно
1006.5 987.6
21 15.09 штиль 0 7000 м дымка ясно +24.8 +24.1 96 +34 +34 очень
душно
1005.8 986.8
00 16.09 штиль 0 7000 м дымка 3/1 600 м
[Sc Cs]
+25.0 +24.4 96 +35 +36 очень
душно
1007.3 988.3 +24.1
03 16.09 ЮЗ 2 10 км 5/4 600 м
[Cu hum Ac trans Cs]
+31.0 +25.7 73 +46 +54 опасность
перегрева
1008.0 989.3
06 16.09 С 2 10 км 3/3 600 м
[Sc Ac trans Cs]
+33.6 +24.5 59 +46 +60 опасность
перегрева
1005.2 986.7
09 16.09 СВ 2 10 км 3/1 600 м
[Sc Cs]
+34.6 +23.7 53 +46 +51 опасность
перегрева
1002.8 984.5
12 16.09 штиль 0 8000 м дымка 1/0
[Ac trans Ci fib]
+29.8 +25.1 76 +43 +43 опасность
перегрева
1003.7 985.1 +34.5
15 16.09 штиль 0 8000 м дымка 1/0
[Cs]
+27.2 +24.8 87 +39 +39 очень
душно
1006.4 987.5
18 16.09 штиль 0 7000 м дымка 1/0
[Cs]
+26.0 +24.6 92 +37 +37 очень
душно
1006.1 987.2
21 16.09 штиль 0 7000 м дымка 8/1 600 м
[Sc Ac und Cs]
+25.7 +24.7 94 +36 +36 очень
душно
1005.9 986.9
00 17.09 штиль 0 5000 м дымка 3/0
[Ac trans Cs]
+25.6 +25.2 98 +37 +38 очень
душно
1007.5 988.5 +24.6
03 17.09 штиль 0 9000 м дымка 8/3 600 м
[Cu med, cong Ac As Cs]
+31.5 +25.3 70 +46 +55 опасность
перегрева
1008.2 989.6
06 17.09 С 1 10 км 5/3 600 м
[Cu med, cong Cs]
+34.0 +24.8 59 +47 +62 опасность
перегрева
1005.6 987.2
09 17.09 З 1 5000 м гроза, ливневой дождь 10/5 600 м
[Cb cap Ac As]
+26.4 +24.2 88 +37 +38 очень
душно
1004.8 985.9 13
12 17.09 СЗ 1 5000 м слаб. дождь {гроза} 10/6 600 м
[Sc Ac As]
+26.6 +25.9 96 +40 +40 очень
душно
1005.8 986.9 +35.1 0.8
15 17.09 штиль 0 8000 м дымка {дождь} 6/0
[Cs]
+26.5 +25.8 96 +39 +39 очень
душно
1007.6 988.7 1
18 17.09 штиль 0 8000 м дымка {дождь} 4/0
[Cs]
+26.3 +25.7 97 +39 +39 очень
душно
1007.1 988.2 15
21 17.09 штиль 0 8000 м дымка 8/0
[Cs]
+26.1 +25.7 98 +38 +38 очень
душно
1007.2 988.3
00 18.09 штиль 0 8000 м дымка 4/1 600 м
[Cu hum Cs]
+25.6 +25.2 98 +37 +38 очень
душно
1008.9 989.9 +24.9
03 18.09 штиль 0 10 км 3/0
[Cs]
+31.6 +25.9 72 +47 +66 опасность
перегрева
1009.6 990.9
06 18.09 С 4 10 км 8/3 600 м
[Cu hum Ac lent Cs]
+34.1 +25.7 62 +49 +55 опасность
перегрева
1007.1 988.6
09 18.09 штиль 0 10 км 8/3 600 м
[Cu hum Ac lent Cs]
+33.0 +26.2 68 +49 +53 опасность
перегрева
1005.4 987.0
12 18.09 штиль 0 10 км 8/3 600 м
[Cu hum Ac lent Cs]
+28.8 +25.1 80 +42 +42 опасность
перегрева
1007.5 988.7 +34.2
15 18.09 штиль 0 8000 м дымка 8/3 600 м
[Cu hum Ac lent Cs]
+27.8 +25.7 88 +41 +41 опасность
перегрева
1009.6 990.7
18 18.09 штиль 0 8000 м дымка 8/3 600 м
[Cu hum Ac lent Cs]
+27.0 +25.4 91 +39 +39 очень
душно
1008.6 989.7
21 18.09 штиль 0 7000 м дымка 8/3 600 м
[Cu hum Ac As Cs]
+26.0 +24.6 92 +37 +37 очень
душно
1007.7 988.7
00 19.09 штиль 0 8000 м дымка 10/3 600 м
[Sc Ac As Cs]
+25.8 +24.2 91 +36 +36 очень
душно
1009.7 990.7 +25.0 0.0
03 19.09 СВ 2 10 км 6/3 600 м
[Cu hum Ac trans Cs]
+30.8 +24.7 70 +44 +52 опасность
перегрева
1010.7 992.0
06 19.09 В 2 10 км 4/3 600 м
[Cu med, cong Cs]
+33.2 +25.9 66 +49 +62 опасность
перегрева
1007.6 989.1
09 19.09 С 2 10 км 5/3 600 м
[Cu med, cong Ac As Cs]
+33.0 +25.7 66 +48 +52 опасность
перегрева
1005.8 987.3
12 19.09 СВ 3 8000 м слаб. дождь 10/5 600 м
[Cb cap Ac As Cs]
+28.2 +24.8 82 +40 +40 очень
душно
1007.9 989.0 +33.6 0.0
15 19.09 штиль 0 8000 м дымка {дождь} 3/0
[Ac trans Cs]
+26.5 +25.1 92 +38 +38 очень
душно
1009.5 990.5 0.2
18 19.09 штиль 0 7000 м дымка {дождь} 9/3 600 м
[Sc Ac As Cs]
+26.4 +25.5 95 +39 +39 очень
душно
1008.8 989.8 0.2
21 19.09 штиль 0 7000 м дымка {дождь} 10/6 600 м
[Sc Ac As]
+26.3 +25.6 96 +39 +39 очень
душно
1008.0 989.1 0.1
00 20.09 СВ 2 8000 м дымка {дождь} 10/6 600 м
[Sc Ac As]
+26.0 +25.1 95 +37 +37 очень
душно
1009.2 990.2 +25.6 0.3
03 20.09 штиль 0 10 км в посл. час дождь 8/3 600 м
[Cu med, cong Ac As Cs]
+27.6 +26.0 91 +41 +50 опасность
перегрева
1010.0 991.1 0.5
06 20.09 штиль 0 10 км {дождь} 8/3 600 м
[Cu med, cong Ac trans Cs]
+31.2 +25.4 71 +45 +57 опасность
перегрева
1007.2 988.5 0.5
09 20.09 штиль 0 10 км {дождь} 9/3 600 м
[Cu med, cong Ac As Cs]
+27.0 +25.4 91 +39 +43 очень
душно
1005.2 986.4 18
12 20.09 штиль 0 8000 м слаб. дождь 10/4 600 м
[Sc Ac As Cs]
+26.0 +25.0 94 +37 +37 очень
душно
1007.2 988.2 +32.5 0.0
15 20.09 СВ 1 5000 м слаб. дождь 10/6 300 м
[Sc Ac As]
+25.0 +24.4 96 +35 +35 очень
душно
1009.9 990.9 6
18 20.09 Ю 1 5000 м слаб. дождь 10/6 300 м
[Sc Ac As]
+24.4 +23.8 96 +33 +33 очень
душно
1008.9 989.8 4

 

Местоположение метеостанции Тха Пхра Агромет (Таиланд): широта 16.33 долгота 102.82 высота над уровнем моря 166 м.

В архиве по умолчанию представлена погода в Тха Пхра Агромете за последнюю неделю. Архивные данные за месяц целиком и за предыдущие месяцы, начиная с января 2011 года, Вы можете получить, выбрав интересующий диапазон дат из раскрывающегося списка и нажав кнопку "Ввод!".


*Определитесь, кто Вы:
робот инопланетянин человек

Внимание! Время в таблицах - всемирное. Для получения местного времени необходимо прибавить поправку, которая равна 7 ч.

Смотрите также архив погоды в соседних городах и на ближайших метеорологических станциях:

Погода в Кхонкэне (Таиланд) (11 км)
Погода в Косумпхисаи (Таиланд) (28 км)
Погода в Камаласаи (Таиланд) (81 км)
Погода в Рой Эт Агромете (Таиланд) (90 км)
Погода в Рой Эт (Таиланд) (97 км)
Погода в Чайяпхуме (Таиланд) (103 км)
Погода в Нонгбуалампху (Таиланд) (108 км)
Погода в Удонтхани (Таиланд) (117 км)
Погода в Бури-Рам (Таиланд) (131 км)
Погода в Тха Тум (Таиланд) (145 км)

Пояснения к столбцам:

Ветер - указаны скорость ветра в м/с - средняя за 10 мин, порывы в срок и между сроками (в фигурных скобках) и направление, откуда дует ветер: С - северный, СВ - северо-восточный, В - восточный, ЮВ - юго-восточный, Ю - южный, ЮЗ - юго-западный, З - западный, СЗ - северо-западный.
Видимость - горизонтальная дальность видимости в метрах или километрах. При видимости от 1 до 10 км при отсутствии осадков обычно наблюдается дымка, при ухудшении видимости до 1 км и менее - туман. В сухую погоду видимость может ухудшаться дымом, пылью или мглою.
Явления - указаны атмосферные явления, наблюдавшиеся в срок или в последний час перед сроком; фигурными скобками обозначены явления, наблюдавшиеся между сроками (за 1-3 часа до срока); квадратными скобками обозначены град или гололедные отложения с указанием их диаметра в мм.
Облачность - указаны через наклонную черту общая и нижняя облачность в баллах и высота нижней границы облаков в метрах; квадратными скобками обозначены формы облаков: Ci - перистые, Cs - перисто-слоистые, Cc - перисто-кучевые, Ac - высококучевые, As - высокослоистые, Sc - слоисто-кучевые, Ns - слоисто-дождевые, Cu - кучевые, Cb - кучево-дождевые. Подробнее классификацию облаков см. в Атласе облаков (PDF).
T - Температура воздуха - температура, измеренная на высоте 2 м над землей.
Td - Температура точки росы - температура, при понижении до которой содержащийся в воздухе водяной пар достигнет насыщения.
f - Относительная влажность воздуха - влажноcть воздуха, измеренная на высоте 2 м над землей.
Te - Эффективная температура - температура, которую ощущает одетый по сезону человек в тени. Характеристика душности погоды. При расчете учитывается влияние влажности воздуха и скорости ветра на теплоощущения человека.
Tes - Эффективная температура на солнце - температура, которую ощущает человек, с поправкой на солнечный нагрев. Характеристика знойности погоды. Зависит от высоты солнца над горизонтом, облачности и скорости ветра. Ночью, в пасмурную погоду, а также при ветре 12 м/с и более поправка равна нулю.
P - Атмосферное давление - приведенное к уровню моря атмосферное давление.
Po - Атмосферное давление - измеренное на уровне метеостанции атмосферное давление.
Tmin - Минимальная температура - минимум температуры воздуха на высоте 2 м над землей.
Tmax - Максимальная температура - максимум температуры воздуха на высоте 2 м над землей.
R - Количество осадков - Количество выпавших осадков за период времени, мм. При наведении курсора мыши на число - период времени, за который выпало указанное количество осадков.
R24 - Количество осадков - Количество выпавших осадков за 24 часа, мм.
S - Снежный покров - Высота снежного покрова, см. При наведении курсора мыши на число - состояние снежного покрова и степень покрытия местности в баллах.